This is the latest recevied weather packets stored in our database for station/object KI5RAB. If no packets are shown the sender has not sent any weather packets the latest 10 day(s).
| Time | Temp. | Humidity | Pressure | Rain* | Wind** | Luminosity | Snow |
|---|---|---|---|---|---|---|---|
| 1777475823 | 25.56° C | 88% | 1016 hPa | 0 mm | - | 83 W/m² | - |
| 1777475519 | 25.56° C | 87% | 1015.9 hPa | 0 mm | - | 84 W/m² | - |
| 1777475215 | 25.56° C | 88% | 1015.7 hPa | 0 mm | - | 107 W/m² | - |
| 1777474911 | 25.56° C | 89% | 1015.9 hPa | 0 mm | - | 69 W/m² | - |
| 1777474607 | 25.56° C | 88% | 1015.7 hPa | 0 mm | - | 56 W/m² | - |
| 1777474304 | 25.56° C | 89% | 1015.6 hPa | 0 mm | - | 51 W/m² | - |
| 1777474000 | 25.56° C | 89% | 1015.8 hPa | 0 mm | - | 55 W/m² | - |
| 1777473698 | 25.56° C | 89% | 1015.4 hPa | 0 mm | - | 48 W/m² | - |
| 1777473394 | 25.56° C | 88% | 1015.2 hPa | 0 mm | - | 48 W/m² | - |
| 1777473090 | 25.56° C | 88% | 1015.4 hPa | 0 mm | - | 47 W/m² | - |
| 1777472787 | 25.56° C | 88% | 1015.7 hPa | 0 mm | - | 49 W/m² | - |
| 1777472484 | 25.56° C | 89% | 1015.5 hPa | 0 mm | - | 47 W/m² | - |
| 1777472181 | 25° C | 89% | 1015.2 hPa | 0 mm | - | 46 W/m² | - |
| 1777471881 | 25° C | 90% | 1015.2 hPa | 0 mm | - | 38 W/m² | - |
| 1777471578 | 25° C | 90% | 1015.5 hPa | 0 mm | - | 37 W/m² | - |
| 1777471275 | 25° C | 90% | 1015.2 hPa | 0 mm | - | 37 W/m² | - |
| 1777470971 | 25° C | 90% | 1015 hPa | 0 mm | - | 38 W/m² | - |
| 1777470669 | 25° C | 89% | 1015.1 hPa | 0 mm | - | 33 W/m² | - |
| 1777470364 | 25° C | 90% | 1015.2 hPa | 0 mm | - | 31 W/m² | - |
| 1777470061 | 25° C | 90% | 1014.9 hPa | 0 mm | - | 35 W/m² | - |
| 1777469757 | 25° C | 90% | 1014.9 hPa | 0 mm | - | 33 W/m² | - |
| 1777469453 | 25° C | 91% | 1015 hPa | 0 mm | - | 30 W/m² | - |
| 1777469148 | 25° C | 91% | 1014.8 hPa | 0 mm | - | 28 W/m² | - |
| 1777468848 | 25° C | 91% | 1015 hPa | 0 mm | - | 24 W/m² | - |
| 1777468544 | 25° C | 91% | 1014.8 hPa | 0 mm | - | 18 W/m² | - |
* Rain latest hour (hover to see other rain measurements)
** Current wind speed in m/s (hover to see current wind gust speed)